This demonstration page uses our WeatherBlox Daily Observations layout. Learn more.

Left ArrowRight Arrow

39.51506, -84.39828

Hourly Observations for August 23, 2020

Temp ( °F °C ) Dew Point ( °F °C ) Humidity (%) Winds ( mph kmh ) Pressure ( in mb ) Visibility ( mi km ) Precip ( " mm )
12:15 am 00:15 Hazy 66 19 N/A N/A Calm 30 1016 7 11.26538 0 0
12:35 am 00:35 Clear 66 19 N/A N/A Calm 30.01 1016 10 16.0934 0 0
12:55 am 00:55 Clear with Mist and Fog 64 18 N/A N/A Calm 30.01 1016 3.5 5.63269 0 0
1:15 am 01:15 Clear 64 18 N/A N/A Calm 30 1016 7 11.26538 0 0
1:35 am 01:35 Clear 64 18 N/A N/A Calm 30 1016 10 16.0934 0 0
1:55 am 01:55 Clear 64 18 N/A N/A Calm 30 1016 7 11.26538 0 0
2:15 am 02:15 Clear with Mist and Fog 64 18 N/A N/A Calm 30.01 1016 3.5 5.63269 0 0
2:35 am 02:35 Clear 64 18 N/A N/A Calm 30.01 1016 7 11.26538 0 0
2:55 am 02:55 Hazy 64 18 N/A N/A Calm 30 1016 4 6.43736 0 0
3:15 am 03:15 Hazy 64 18 N/A N/A Calm 30.01 1016 5 8.0467 0 0
3:35 am 03:35 Hazy 64 18 N/A N/A Calm 30 1016 5 8.0467 0 0
3:55 am 03:55 Hazy 63 17 N/A N/A Calm 30 1016 4 6.43736 0 0
4:15 am 04:15 Clear with Mist and Fog 63 17 N/A N/A Calm 30 1016 4 6.43736 0 0
4:35 am 04:35 Hazy 64 18 N/A N/A Calm 30 1016 7 11.26538 0 0
4:55 am 04:55 Mostly Cloudy with Mist and Fog 63 17 N/A N/A Calm 30.01 1016 1.75 2.816345 0 0
5:15 am 05:15 Clear 64 18 N/A N/A Calm 30.01 1016 7 11.26538 0 0
5:35 am 05:35 Hazy 63 17 N/A N/A Calm 30.01 1016 5 8.0467 0 0
5:55 am 05:55 Hazy 63 17 N/A N/A Calm 30.01 1016 5 8.0467 0 0
6:15 am 06:15 Clear 63 17 N/A N/A Calm 30.02 1017 7 11.26538 0 0
6:35 am 06:35 Mostly Cloudy with Haze 63 17 N/A N/A Calm 30.02 1017 7 11.26538 0 0
6:55 am 06:55 Cloudy with Haze 64 18 N/A N/A Calm 30.03 1017 5 8.0467 0 0
7:15 am 07:15 Cloudy with Haze 64 18 N/A N/A Calm 30.03 1017 5 8.0467 0 0
7:35 am 07:35 Cloudy with Haze 64 18 N/A N/A Calm 30.04 1017 7 11.26538 0 0
7:55 am 07:55 Cloudy with Haze 66 19 N/A N/A Calm 30.04 1017 7 11.26538 0 0
8:15 am 08:15 Cloudy 66 19 N/A N/A N 3 6 30.05 1018 7 11.26538 0 0
8:35 am 08:35 Mostly Cloudy 67 19.7 67 19.6 99 99 Calm 30.05 1017 7 11.26538 0 0
8:55 am 08:55 Mostly Cloudy with Mist and Fog 69 20.7 69 20.6 99 99 Calm 30.04 1017 5 8.0467 0 0
9:15 am 09:15 Mostly Cloudy with Mist and Fog 71 21.7 69 20.7 94 94 Calm 30.05 1018 7 11.26538 0 0
9:35 am 09:35 Sunny 73 22.8 70 21.1 90 90 SSW 3 6 30.05 1018 10 16.0934 0 0
9:55 am 09:55 Sunny 73 22.8 69 20.8 89 89 Calm 30.05 1018 10 16.0934 0 0
10:15 am 10:15 Sunny 74 23.4 70 21.3 88 88 WSW 3 6 30.06 1018 10 16.0934 0 0
10:35 am 10:35 Sunny 76 24.2 71 21.6 85 85 SW 3 6 30.05 1018 10 16.0934 0 0
10:55 am 10:55 Sunny 77 24.9 71 21.7 82 82 WSW 6 9 30.05 1018 10 16.0934 0 0
11:15 am 11:15 Sunny 78 25.6 69 20.7 74 74 SSW 5 7 30.05 1018 10 16.0934 0 0
11:35 am 11:35 Sunny 78 25.5 69 20.3 73 73 SW 5 7 30.05 1018 10 16.0934 0 0
11:55 am 11:55 Partly Cloudy 80 26.5 69 20.7 71 71 SSW 6 9 30.05 1018 10 16.0934 0 0
12:15 pm 12:15 Partly Cloudy 79 25.9 71 21.5 77 77 SW 8 13 30.05 1018 10 16.0934 0 0
12:35 pm 12:35 Sunny 79 26.2 71 21.4 75 75 SW 6 9 30.05 1018 10 16.0934 0 0
12:55 pm 12:55 Sunny 80 26.7 70 21.3 72 72 SW 6 9 30.04 1017 10 16.0934 0 0
1:15 pm 13:15 Sunny 82 27.8 70 20.9 66 66 W 7 11 30.04 1017 10 16.0934 0 0
1:35 pm 13:35 Sunny 82 28 69 20.4 63 63 S 8 13 30.03 1017 10 16.0934 0 0
1:55 pm 13:55 Sunny 83 28.5 69 20.4 62 62 S 7 11 30.03 1017 10 16.0934 0 0
2:15 pm 14:15 Sunny 84 28.7 68 20 59 59 S 6 9 30.01 1016 10 16.0934 0 0
2:35 pm 14:35 Sunny 84 28.9 68 19.8 58 58 SW 6 9 30.01 1016 10 16.0934 0 0
2:55 pm 14:55 Sunny 85 29.6 67 19.3 54 54 W 5 7 30 1016 10 16.0934 0 0
3:15 pm 15:15 Sunny 85 29.3 66 19.1 54 54 WSW 3 6 30 1016 10 16.0934 0 0
3:35 pm 15:35 Partly Cloudy 85 29.4 67 19.5 55 55 WSW 5 7 29.99 1016 10 16.0934 0 0
3:55 pm 15:55 Sunny 86 29.9 67 19.3 53 53 WNW 3 6 29.99 1016 10 16.0934 0 0
4:15 pm 16:15 Sunny 86 30 66 18.7 51 51 Calm 29.99 1016 10 16.0934 0 0
4:35 pm 16:35 Partly Cloudy with Nearby Thunderstorms 86 29.8 67 19.5 54 54 Calm 29.98 1015 10 16.0934 0 0
4:55 pm 16:55 Partly Cloudy 85 29.7 67 19.4 54 54 Calm 29.98 1015 10 16.0934 0 0
5:15 pm 17:15 Partly Cloudy 84 28.7 68 19.8 59 59 SW 3 6 29.98 1015 10 16.0934 0 0
5:35 pm 17:35 Sunny 84 28.9 68 20 59 59 SW 6 9 29.98 1015 10 16.0934 0 0
5:55 pm 17:55 Partly Cloudy 86 30 69 20.4 56 56 SSW 6 9 29.97 1015 10 16.0934 0 0
6:15 pm 18:15 Sunny 86 29.9 68 19.8 55 55 SW 7 11 29.98 1015 10 16.0934 0 0
6:35 pm 18:35 Sunny with Nearby Thunderstorms 85 29.6 67 19.7 55 55 WSW 5 7 29.97 1015 10 16.0934 0 0
6:55 pm 18:55 Partly Cloudy 85 29.5 67 19.6 55 55 WSW 3 6 29.98 1015 10 16.0934 0 0
7:15 pm 19:15 Partly Cloudy 81 27.3 69 20.6 67 67 S 7 11 29.99 1016 10 16.0934 0 0
7:35 pm 19:35 Sunny 80 26.8 68 20 66 66 S 5 7 29.99 1016 10 16.0934 0 0
7:55 pm 19:55 Sunny 80 26.6 68 19.9 67 67 SSW 7 11 29.99 1016 10 16.0934 0 0
8:15 pm 20:15 Sunny 78 25.3 69 20.6 75 75 WSW 3 6 30 1016 10 16.0934 0 0
8:35 pm 20:35 Clear 75 23.7 70 20.9 84 84 SW 3 6 30.01 1016 10 16.0934 0 0
8:55 pm 20:55 Clear 74 23.2 70 20.9 87 87 SW 3 6 30.02 1016 10 16.0934 0 0
9:15 pm 21:15 Clear 72 22.4 69 20.8 91 91 Calm 30.03 1017 10 16.0934 0 0
9:35 pm 21:35 Clear 74 23.3 69 20.8 86 86 Calm 30.04 1017 10 16.0934 0 0
9:55 pm 21:55 Clear 70 21.3 69 20.5 95 95 Calm 30.04 1017 10 16.0934 0 0
10:15 pm 22:15 Clear 71 21.7 70 20.9 95 95 Calm 30.05 1018 10 16.0934 0 0
10:35 pm 22:35 Clear 70 20.9 69 20.4 97 97 Calm 30.05 1018 10 16.0934 0 0
10:55 pm 22:55 Clear 69 20.4 68 20 98 98 Calm 30.05 1018 10 16.0934 0 0
11:15 pm 23:15 Clear 69 20.8 69 20.7 99 99 Calm 30.05 1018 10 16.0934 0 0
11:35 pm 23:35 Clear 69 20.5 68 20.2 98 98 Calm 30.05 1018 10 16.0934 0 0
11:55 pm 23:55 Clear 68 19.8 68 19.8 100 100 Calm 30.06 1018 10 16.0934 0 0

Powered by AerisWeather